Flag for Spain Weather past 2 weeks in Alicante, Spain

Now
57 °F

Clear.


Feels Like: 57 °F
Forecast: 52 / 68 °F
Wind: 1 mph from North

Location: Alicante / El Altet

Current Time: May 23, 2015 at 7:57:43 AM

Latest Report: May 23, 2015 at 7:30 AM


Visibility: 10 mi

Pressure: 30.07 "Hg

Humidity: 63%

Dew point: 45 °F

Location of AlicanteLocation

Historic Weather in Alicante — Graph

°F

Alicante temperature yesterday

Maximum temperature yesterday: 70 °F (at 1:00 PM)
Minimum temperature yesterday: 55 °F (at 5:00 AM)
Average temperature yesterday: 64 °F

Past Weeks' High & Low Weather Summary

 TemperatureHumidityPressure
High99 °F (May 14, 3:00 PM)100% (May 10, 4:30 AM)30.27 "Hg (May 10, 4:30 AM)
Low54 °F (May 23, 5:30 AM)9% (May 15, 12:00 AM)29.71 "Hg (May 19, 6:30 AM)
Average70 °F56%30.11 "Hg
* Reported May 8 6:00 AM — May 23 6:30 AM, Alicante, Weather by CustomWeather, © 2015

Note: Actual official high and low records may vary slightly from our data, if they occured in-between our weather recording intervals... More about our weather records

Advertising

Alicante weather history for previous 24 hours

 ConditionsComfort  
Time TempWeatherWind HumidityBarometerVisibility
6:30 AM
Sat, May 23
57 °FClear.3 mph67%30.07 "Hg10 mi
6:00 AM54 °FClear.2 mph77%30.07 "Hg10 mi
5:30 AM54 °FClear.1 mph72%30.07 "Hg10 mi
5:00 AM55 °FClear.3 mph72%30.07 "Hg10 mi
4:30 AM57 °FClear.3 mph72%30.07 "Hg10 mi
4:00 AM55 °FClear.2 mph77%30.07 "Hg10 mi
3:30 AM57 °FClear.2 mph72%30.07 "Hg10 mi
3:00 AM57 °FClear.2 mph77%30.07 "Hg10 mi
2:30 AM59 °FClear.3 mph72%30.09 "Hg10 mi
2:00 AM57 °FClear.2 mph72%30.09 "Hg10 mi
1:30 AM61 °FClear.2 mph68%30.09 "Hg10 mi
1:00 AM59 °FClear.1 mph68%30.12 "Hg10 mi
12:30 AM63 °FClear.1 mph64%30.12 "Hg10 mi
12:00 AM63 °FClear.1 mph64%30.12 "Hg10 mi
11:30 PM
Fri, May 22
63 °FClear.No wind64%30.12 "Hg10 mi
11:00 PM63 °FClear.1 mph64%30.12 "Hg10 mi
10:30 PM64 °FClear.No wind60%30.12 "Hg10 mi
10:00 PM64 °FSunny.1 mph60%30.09 "Hg10 mi
9:30 PM64 °FSunny.2 mph60%30.12 "Hg10 mi
9:00 PM66 °FPassing clouds.5 mph56%30.12 "HgN/A
8:30 PM66 °FPassing clouds.5 mph60%30.12 "HgN/A
8:00 PM66 °FPassing clouds.7 mph56%30.09 "HgN/A
7:30 PM68 °FPassing clouds.9 mph53%30.09 "HgN/A
7:00 PM68 °FPassing clouds.9 mph53%30.09 "HgN/A
6:30 PM68 °FScattered clouds.10 mph53%30.12 "HgN/A
6:00 PM68 °FPassing clouds.10 mph56%30.12 "HgN/A
5:30 PM68 °FPassing clouds.10 mph56%30.12 "HgN/A
5:00 PM70 °FPassing clouds.10 mph53%30.12 "HgN/A
4:30 PM70 °FPassing clouds.10 mph53%30.12 "HgN/A
4:00 PM70 °FPassing clouds.13 mph57%30.12 "HgN/A
3:30 PM70 °FPassing clouds.12 mph57%30.15 "HgN/A
3:00 PM70 °FPassing clouds.10 mph53%30.15 "HgN/A
2:30 PM70 °FPassing clouds.12 mph53%30.15 "HgN/A
2:00 PM70 °FPassing clouds.13 mph53%30.18 "HgN/A
1:30 PM70 °FPassing clouds.10 mph53%30.18 "HgN/A
1:00 PM70 °FScattered clouds.10 mph53%30.18 "HgN/A
12:30 PM68 °FScattered clouds.10 mph56%30.18 "HgN/A
12:00 PM68 °FScattered clouds.12 mph56%30.18 "HgN/A
11:30 AM68 °FScattered clouds.10 mph53%30.21 "HgN/A
11:00 AM68 °FScattered clouds.9 mph53%30.21 "HgN/A
10:30 AM68 °FScattered clouds.7 mph56%30.21 "HgN/A
10:00 AM66 °FPassing clouds.7 mph56%30.21 "HgN/A
9:30 AM66 °FPassing clouds.2 mph52%30.18 "HgN/A
9:00 AM64 °FPassing clouds.3 mph49%30.18 "HgN/A
8:30 AM61 °FSunny.2 mph55%30.18 "Hg10 mi
8:00 AM61 °FSunny.1 mph59%30.18 "Hg10 mi
7:30 AM59 °FClear.2 mph63%30.18 "Hg10 mi
7:00 AM55 °FClear.3 mph67%30.18 "Hg10 mi
Weather by CustomWeather, © 2015

See weather overviewHow to use our weather pages